COSMOS 2491 DEB, 45130

Orbit data source: Space-Track

COSMOS 2491 DEB, 45130 is space debris in LEO originally from a launch on Wed, 25 Dec 2013 UTC launched from the Plesetsk Missile And Space Complex (PKMTR). Debris objects in space refer to the collection of defunct objects orbiting the Earth. Examples of debris include non-operational satellites, rocket bodies, and fragments generated from explosions, collisions, or faulty payload assembly.

Loading next visibility...
Identifier
45130, 2013-076AC
Orbit
LEO
Country
Flag of CISCIS
Related business
Manufacturer
TsNIIKhM
Mission
Spacecraft
Bus & Motor
Unknown
Mass
Unknown
Launch date (UTC)
2013-12-25 (12 years ago)
Launch vehicle
Unknown
Launch site
Plesetsk Missile And Space Complex (PKMTR)
Object type
Payload
Rocket body
Debris
Shape & HBR
Unknown shape, 0.1 m
Radar Cross Section
Small (<0.1 m²)

Expand to show TLE details & history
Last TLE update: 2 days ago

TLE from 2 days ago
0 COSMOS 2491 DEB
1 45130U 13076AC  25302.15435343  .00003427  00000-0  16177-1 0  9999
2 45130  82.4494 254.7649 0164858 312.0187  46.6971 12.70614337265333
Epoch: 2025-10-29T03:42Z
TLE epoch observation values (Epoch: 2025-10-29T03:42:16.136Z)
Latitude
0.00001°
Longitude
161.4661°
Altitude
1,295.585 km
Speed
7.249 km/s
True Right ascension
16h 59m 03s
True Declination
0° 00' 00"
Sunlit
Object was in daylight at epoch
Visualization orbit readout
Latitude
Unknown
Longitude
Unknown
Altitude
Unknown
Speed
Unknown
Apparent Right ascension
Unknown
Apparent Declination
Unknown
Sunlit
N/A
Visualization observer readout
Local Sidereal Time
14:10:24
Azimuth
Unknown
Elevation
Unknown
Doppler factor
Unknown
Orbital elements
Apogee altitude
1,504.597 km
Perigee altitude
1,248.906 km
Semi-major axis
7,754.888 km
Eccentricity
0.01649
Inclination
82.4494°
RAAN
254.7649°
Arg. of periapsis
312.0187°
True anomaly
48.09145°
Mean anomaly
46.6971°
Eccentric anomaly
47.39231°
Mean motion
3.17819 °/min
Orbital period
113.27 mins
BSTAR
0.016177
Loading maneuver chart data...
Computing Atmospheric mass density...
Loading historical data...
Loading historical data...
Loading historical data...
Loading historical data...
Loading historical data...
Loading historical data...
Loading historical data...

Documentation

Showing up to 5 results
|